Hourly Weather Rubtsi

Today, 29 July, Thursday

Time Temperature Precipitation Wind Pressure Humidity
00:00 +25°C° 0 mm 3 mps 748 mmHg 53%
01:00 +24°C° 0 mm 3 mps 748 mmHg 57%
02:00 +22°C° 0 mm 3 mps 748 mmHg 60%
03:00 +21°C° 0 mm 3 mps 747 mmHg 67%
04:00 +21°C° 0 mm 3 mps 747 mmHg 69%
05:00 +21°C° 0 mm 3 mps 747 mmHg 71%
06:00 +21°C° 0 mm 3 mps 747 mmHg 73%
07:00 +24°C° 0.1 mm 3 mps 747 mmHg 67%
08:00 +26°C° 0.1 mm 4 mps 747 mmHg 61%
09:00 +28°C° 0.1 mm 4 mps 747 mmHg 55%
10:00 +30°C° 0 mm 4 mps 747 mmHg 50%
11:00 +32°C° 0 mm 5 mps 747 mmHg 46%
12:00 +34°C° 0 mm 5 mps 747 mmHg 41%
13:00 +34°C° 0 mm 5 mps 746 mmHg 41%
14:00 +34°C° 0 mm 5 mps 746 mmHg 40%
15:00 +34°C° 0 mm 4 mps 746 mmHg 40%
16:00 +34°C° 0 mm 4 mps 745 mmHg 42%
17:00 +33°C° 0 mm 3 mps 745 mmHg 45%
18:00 +31°C° 0 mm 3 mps 745 mmHg 47%
19:00 +29°C° 0.2 mm 3 mps 745 mmHg 56%
20:00 +27°C° 0.2 mm 2 mps 745 mmHg 65%
21:00 +25°C° 0.2 mm 2 mps 745 mmHg 73%
22:00 +24°C° 0.2 mm 2 mps 745 mmHg 76%
23:00 +24°C° 0.2 mm 2 mps 745 mmHg 79%

Tomorrow, 30 July, Friday

Time Temperature Precipitation Wind Pressure Humidity
00:00 +23°C° 0.2 mm 2 mps 745 mmHg 81%
01:00 +23°C° 0.2 mm 2 mps 745 mmHg 84%
02:00 +21°C° 0.2 mm 2 mps 745 mmHg 86%
03:00 +20°C° 0.2 mm 2 mps 745 mmHg 89%
04:00 +21°C° 0 mm 2 mps 745 mmHg 88%
05:00 +21°C° 0 mm 2 mps 745 mmHg 86%
06:00 +21°C° 0 mm 2 mps 745 mmHg 85%
07:00 +24°C° 0 mm 2 mps 745 mmHg 78%
08:00 +26°C° 0 mm 2 mps 745 mmHg 71%
09:00 +27°C° 0 mm 2 mps 745 mmHg 63%
10:00 +29°C° 0 mm 3 mps 745 mmHg 57%
11:00 +31°C° 0 mm 3 mps 745 mmHg 51%
12:00 +33°C° 0 mm 4 mps 745 mmHg 45%
13:00 +34°C° 0 mm 4 mps 745 mmHg 44%
14:00 +35°C° 0 mm 4 mps 744 mmHg 42%
15:00 +35°C° 0 mm 4 mps 744 mmHg 40%
16:00 +35°C° 0 mm 4 mps 744 mmHg 42%
17:00 +34°C° 0 mm 4 mps 743 mmHg 45%
18:00 +34°C° 0 mm 4 mps 743 mmHg 47%
19:00 +29°C° 1.9 mm 4 mps 743 mmHg 61%
20:00 +26°C° 1.9 mm 3 mps 744 mmHg 75%
21:00 +21°C° 1.9 mm 3 mps 745 mmHg 88%
22:00 +21°C° 1.9 mm 3 mps 745 mmHg 89%
23:00 +21°C° 1.9 mm 2 mps 745 mmHg 90%

Day after tomorrow, 31 July, Saturday

Time Temperature Precipitation Wind Pressure Humidity
00:00 +21°C° 1.9 mm 2 mps 745 mmHg 91%
01:00 +21°C° 0.2 mm 2 mps 745 mmHg 90%
02:00 +21°C° 0.2 mm 1 mps 744 mmHg 89%
03:00 +21°C° 0.2 mm 1 mps 744 mmHg 88%
04:00 +21°C° 0 mm 1 mps 745 mmHg 87%
05:00 +21°C° 0 mm 1 mps 745 mmHg 87%
06:00 +21°C° 0 mm 1 mps 745 mmHg 87%
07:00 +23°C° 0 mm 2 mps 745 mmHg 81%
08:00 +25°C° 0 mm 2 mps 745 mmHg 74%
09:00 +26°C° 0 mm 2 mps 745 mmHg 68%
10:00 +28°C° 0 mm 2 mps 746 mmHg 62%
11:00 +29°C° 0 mm 3 mps 746 mmHg 56%
12:00 +31°C° 0 mm 3 mps 746 mmHg 49%
13:00 +31°C° 0 mm 3 mps 746 mmHg 47%
14:00 +33°C° 0 mm 3 mps 745 mmHg 45%
15:00 +33°C° 0 mm 3 mps 745 mmHg 43%
16:00 +33°C° 0 mm 3 mps 745 mmHg 44%
17:00 +31°C° 0 mm 3 mps 745 mmHg 45%
18:00 +31°C° 0 mm 2 mps 746 mmHg 46%
19:00 +29°C° 0 mm 2 mps 746 mmHg 49%
20:00 +28°C° 0 mm 3 mps 746 mmHg 52%
21:00 +26°C° 0 mm 3 mps 746 mmHg 55%
22:00 +25°C° 0 mm 2 mps 746 mmHg 58%
23:00 +25°C° 0 mm 2 mps 746 mmHg 61%

1 August, Sunday

Time Temperature Precipitation Wind Pressure Humidity
00:00 +24°C° 0 mm 1 mps 746 mmHg 64%
01:00 +24°C° 0 mm 1 mps 746 mmHg 64%
02:00 +23°C° 0 mm 1 mps 746 mmHg 64%
03:00 +23°C° 0 mm 1 mps 747 mmHg 64%
04:00 +23°C° 0 mm 2 mps 747 mmHg 64%
05:00 +23°C° 0 mm 2 mps 747 mmHg 64%
06:00 +23°C° 0 mm 2 mps 747 mmHg 64%
07:00 +25°C° 0 mm 2 mps 747 mmHg 60%
08:00 +26°C° 0 mm 3 mps 747 mmHg 56%
09:00 +28°C° 0 mm 3 mps 747 mmHg 51%
10:00 +30°C° 0 mm 3 mps 747 mmHg 48%
11:00 +31°C° 0 mm 2 mps 747 mmHg 44%
12:00 +34°C° 0 mm 2 mps 747 mmHg 41%
13:00 +35°C° 0 mm 2 mps 747 mmHg 38%
14:00 +35°C° 0 mm 2 mps 746 mmHg 35%
15:00 +36°C° 0 mm 2 mps 746 mmHg 33%
16:00 +36°C° 0 mm 2 mps 746 mmHg 34%
17:00 +36°C° 0 mm 2 mps 746 mmHg 35%
18:00 +34°C° 0 mm 1 mps 746 mmHg 36%
19:00 +33°C° 0 mm 1 mps 746 mmHg 40%
20:00 +31°C° 0 mm 1 mps 746 mmHg 45%
21:00 +29°C° 0 mm 2 mps 746 mmHg 49%
22:00 +28°C° 0 mm 1 mps 746 mmHg 51%
23:00 +27°C° 0 mm 1 mps 746 mmHg 52%

2 August, Monday

Time Temperature Precipitation Wind Pressure Humidity
00:00 +26°C° 0 mm 1 mps 746 mmHg 54%
01:00 +26°C° 0 mm 1 mps 746 mmHg 55%
02:00 +25°C° 0 mm 1 mps 746 mmHg 57%
03:00 +25°C° 0 mm 2 mps 746 mmHg 58%
04:00 +25°C° 0 mm 1 mps 746 mmHg 59%
05:00 +25°C° 0 mm 1 mps 746 mmHg 59%
06:00 +23°C° 0 mm 0 mps 746 mmHg 59%
07:00 +27°C° 0 mm 1 mps 746 mmHg 53%
08:00 +29°C° 0 mm 1 mps 746 mmHg 48%
09:00 +31°C° 0 mm 1 mps 746 mmHg 42%
10:00 +33°C° 0 mm 1 mps 746 mmHg 38%
11:00 +35°C° 0 mm 1 mps 745 mmHg 34%
12:00 +36°C° 0 mm 1 mps 745 mmHg 30%
13:00 +38°C° 0 mm 2 mps 745 mmHg 29%
14:00 +38°C° 0 mm 2 mps 745 mmHg 28%
15:00 +38°C° 0 mm 3 mps 745 mmHg 27%
16:00 +38°C° 0 mm 3 mps 744 mmHg 28%
17:00 +37°C° 0 mm 3 mps 744 mmHg 30%
18:00 +37°C° 0 mm 3 mps 744 mmHg 32%
19:00 +35°C° 0 mm 2 mps 744 mmHg 36%
20:00 +31°C° 0 mm 2 mps 744 mmHg 39%
21:00 +29°C° 0 mm 2 mps 744 mmHg 43%
22:00 +29°C° 0 mm 2 mps 744 mmHg 44%
23:00 +28°C° 0 mm 2 mps 744 mmHg 45%

3 August, Tuesday

Time Temperature Precipitation Wind Pressure Humidity
00:00 +27°C° 0 mm 2 mps 744 mmHg 46%
01:00 +26°C° 0 mm 2 mps 744 mmHg 54%
02:00 +24°C° 0 mm 2 mps 744 mmHg 63%
03:00 +23°C° 0 mm 2 mps 744 mmHg 71%
04:00 +23°C° 0.1 mm 2 mps 745 mmHg 75%
05:00 +23°C° 0.1 mm 2 mps 745 mmHg 78%
06:00 +22°C° 0.1 mm 3 mps 746 mmHg 81%
07:00 +24°C° 0.1 mm 3 mps 746 mmHg 75%
08:00 +25°C° 0.1 mm 4 mps 746 mmHg 69%
09:00 +27°C° 0.1 mm 4 mps 747 mmHg 62%
10:00 +28°C° 0 mm 4 mps 747 mmHg 58%
11:00 +29°C° 0 mm 5 mps 747 mmHg 53%
12:00 +30°C° 0 mm 5 mps 747 mmHg 48%
13:00 +32°C° 0 mm 5 mps 747 mmHg 46%
14:00 +32°C° 0 mm 5 mps 747 mmHg 43%
15:00 +32°C° 0 mm 5 mps 747 mmHg 41%
16:00 +32°C° 0 mm 5 mps 747 mmHg 41%
17:00 +30°C° 0 mm 5 mps 747 mmHg 41%
18:00 +30°C° 0 mm 4 mps 748 mmHg 41%
19:00 +28°C° 0 mm 4 mps 748 mmHg 44%
20:00 +26°C° 0 mm 3 mps 748 mmHg 47%
21:00 +24°C° 0 mm 3 mps 749 mmHg 50%
22:00 +22°C° 0 mm 3 mps 749 mmHg 51%
23:00 +21°C° 0 mm 3 mps 749 mmHg 53%
Show more

We Need Your Consent

Meteoprog and our Service Providers may store and access personal data such as cookies, device identifiers or other similar technologies on your device and process such data to personalise content and ads, as well as provide social media features and to analyse the traffic.

  • Store and/or access information on your device

    Cookies, device identifiers or other information can be stored or accessed on your device for the purposes indicated above.

  • Personalised ads and content, ad and content measurement, audience insights, and products development

    Ads and content can be personalised based on a profile. More data can be added to better personalise ads and content. Ad and content performance can be measured. Insights about the audience who saw the ads and content can be derived. Such data can be used to develop or improve user’s experience, systems and software.

By clicking ‘I Agree’ you will allow the use of indicated cookies, device identifiers, web beacons or other similar technologies. Your settings can be changed in the browser on your device.

For certain purposes, legitimate interests may be relied on, rather than consent. You can read more about this in our Privacy and Cookie Policy.